EW2549 Weather Reports


Display with metric or nautical units.
time (UTC)temp
F
wind
direction
speed
MPH
gust
MPH
rain 1hr
in
rain 24hr
in
rain mn
in
humidity
%
barometer
mb
20260905051540 72 335 0.0 0.0 0.00 0.00 0.00 37 1002.9
20260905050033 72 335 0.0 0.0 0.00 0.00 0.00 36 1002.9
20260905044532 73 335 0.0 0.0 0.00 0.00 0.00 36 1002.9
20260905043059 74 315 0.0 0.0 0.00 0.00 0.00 35 1002.9
20260905041531 75 325 0.0 0.0 0.00 0.00 0.00 35 1002.9
20260905040033 75 324 0.0 0.0 0.00 0.00 0.00 37 1003.0
20260905034630 76 326 0.0 2.0 0.00 0.00 0.00 34 1003.0
20260905033030 76 335 0.0 0.0 0.00 0.00 0.00 34 1003.2
20260905031529 76 81 0.0 0.0 0.00 0.00 0.00 34 1002.9
20260905030028 77 81 0.0 0.0 0.00 0.00 0.00 34 1002.8
20260905024530 78 81 0.0 0.0 0.00 0.00 0.00 33 1002.6
20260905023031 79 81 0.0 0.0 0.00 0.00 0.00 33 1002.3
20260905021533 80 81 0.0 0.0 0.00 0.00 0.00 33 1002.0
20260905020026 80 81 0.0 0.0 0.00 0.00 0.00 30 1001.9
20260905014525 82 81 0.0 0.0 0.00 0.00 0.00 28 1001.8
20260905013027 82 81 0.0 0.0 0.00 0.00 0.00 28 1001.6
20260905011525 83 81 0.0 0.0 0.00 0.00 0.00 27 1001.5
20260905010025 84 70 0.0 1.0 0.00 0.00 0.00 26 1001.4
20260905004524 85 81 0.0 0.0 0.00 0.00 0.00 26 1001.5
20260905003025 86 74 0.0 0.0 0.00 0.00 0.00 25 1001.5
20260905001529 87 74 0.0 4.0 0.00 0.00 0.00 24 1001.4
20260905000032 88 69 0.0 4.0 0.00 0.00 0.00 23 1001.2
20260904234528 89 49 0.0 7.0 0.00 0.00 0.00 21 1001.2
20260904233025 92 84 0.0 5.0 0.00 0.00 0.00 20 1001.1
20260904231521 94 101 0.0 7.0 0.00 0.00 0.00 18 1001.0
20260904230022 95 90 0.0 6.0 0.00 0.00 0.00 17 1001.0
20260904224526 95 91 0.0 0.0 0.00 0.00 0.00 15 1001.0
20260904223019 95 129 0.0 0.0 0.00 0.00 0.00 15 1001.2
20260904221520 94 125 0.0 3.0 0.00 0.00 0.00 16 1001.2
20260904220025 94 74 0.0 7.0 0.00 0.00 0.00 15 1001.4
20260904214521 95 71 0.0 9.0 0.00 0.00 0.00 16 1001.4
20260904211513 93 110 0.0 5.0 0.00 0.00 0.00 16 1001.7
20260904210013 94 122 0.0 6.0 0.00 0.00 0.00 16 1001.9
20260904204512 94 76 2.0 8.0 0.00 0.00 0.00 16 1002.1
20260904203010 93 63 3.0 10.0 0.00 0.00 0.00 17 1002.2
20260904201508 93 123 2.0 7.0 0.00 0.00 0.00 17 1002.4
20260904200007 92 98 2.0 9.0 0.00 0.00 0.00 18 1002.5
20260904194503 92 85 3.0 11.0 0.00 0.00 0.00 17 1002.7
20260904193109 91 28 0.0 7.0 0.00 0.00 0.00 18 1002.8
20260904191600 91 107 1.0 12.0 0.00 0.00 0.00 18 1003.0
20260904190058 90 83 2.0 10.0 0.00 0.00 0.00 16 1003.1
20260904184559 90 69 0.0 10.0 0.00 0.00 0.00 18 1003.3
20260904183113 90 129 1.0 10.0 0.00 0.00 0.00 18 1003.5
20260904181552 89 103 2.0 11.0 0.00 0.00 0.00 18 1003.8
20260904180113 89 61 0.0 8.0 0.00 0.00 0.00 19 1003.9
20260904174556 88 89 1.0 8.0 0.00 0.00 0.00 21 1004.0
20260904173046 88 107 2.0 10.0 0.00 0.00 0.00 20 1004.1
20260904171549 87 70 0.0 6.0 0.00 0.00 0.00 21 1004.1
20260904170048 86 110 0.0 7.0 0.00 0.00 0.00 23 1004.1
20260904164538 85 108 0.0 10.0 0.00 0.00 0.00 24 1004.1
20260904163034 84 104 1.0 8.0 0.00 0.00 0.00 27 1004.1
20260904161533 82 85 0.0 3.0 0.00 0.00 0.00 30 1004.1
20260904160027 81 90 0.0 2.0 0.00 0.00 0.00 31 1004.2
20260904154526 79 119 0.0 0.0 0.00 0.00 0.00 32 1004.2
20260904153018 77 116 0.0 0.0 0.00 0.00 0.00 31 1004.3
20260904151516 75 121 0.0 5.0 0.00 0.00 0.00 33 1004.2
20260904150017 72 124 0.0 0.0 0.00 0.00 0.00 43 1004.3
20260904144506 68 125 0.0 0.0 0.00 0.00 0.00 46 1004.3
20260904143006 64 155 0.0 0.0 0.00 0.00 0.00 47 1004.4
20260904141603 63 155 0.0 0.0 0.00 0.00 0.00 50 1004.4
20260904140002 59 219 0.0 0.0 0.00 0.00 0.00 58 1004.3
20260904134601 56 225 0.0 0.0 0.00 0.00 0.00 62 1003.9
20260904133104 54 225 0.0 0.0 0.00 0.00 0.00 61 1003.6
20260904131555 53 240 0.0 0.0 0.00 0.00 0.00 62 1003.6
20260904130054 53 240 0.0 0.0 0.00 0.00 0.00 59 1003.6
20260904124600 53 240 0.0 0.0 0.00 0.00 0.00 60 1003.3
20260904123051 53 240 0.0 0.0 0.00 0.00 0.00 61 1003.4
20260904121549 53 240 0.0 0.0 0.00 0.00 0.00 60 1003.2
20260904120054 54 240 0.0 0.0 0.00 0.00 0.00 60 1003.0
20260904114547 54 240 0.0 0.0 0.00 0.00 0.00 59 1003.0
20260904113043 55 240 0.0 0.0 0.00 0.00 0.00 59 1002.9
20260904111541 55 240 0.0 0.0 0.00 0.00 0.00 60 1002.9
20260904110042 56 240 0.0 0.0 0.00 0.00 0.00 55 1002.7
20260904104535 56 240 0.0 0.0 0.00 0.00 0.00 57 1002.2
20260904103035 57 234 0.0 0.0 0.00 0.00 0.00 55 1002.3
20260904101531 58 234 0.0 0.0 0.00 0.00 0.00 54 1002.2
20260904100028 58 234 0.0 0.0 0.00 0.00 0.00 53 1002.2
20260904094538 59 234 0.0 0.0 0.00 0.00 0.00 53 1001.9
20260904093025 59 234 0.0 0.0 0.00 0.00 0.00 52 1001.9
20260904091532 59 213 0.0 0.0 0.00 0.00 0.00 52 1001.8
20260904090021 60 213 0.0 0.0 0.00 0.00 0.00 54 1001.7
20260904084519 60 213 0.0 0.0 0.00 0.00 0.00 49 1001.7
20260904083016 61 213 0.0 0.0 0.00 0.00 0.00 48 1001.6
20260904081515 61 213 0.0 0.0 0.00 0.00 0.00 48 1001.6
20260904074510 62 213 0.0 0.0 0.00 0.00 0.00 47 1001.3
20260904073008 63 213 0.0 0.0 0.00 0.00 0.00 46 1001.5
20260904071506 63 213 0.0 0.0 0.00 0.00 0.00 47 1001.5
20260904070004 63 213 0.0 0.0 0.00 0.00 0.00 46 1001.7
20260904064625 64 138 0.0 0.0 0.00 0.00 0.00 48 1001.7
20260904063113 65 169 0.0 0.0 0.00 0.00 0.00 46 1002.0
20260904061553 66 169 0.0 0.0 0.00 0.00 0.00 46 1002.1
20260904060105 67 109 0.0 0.0 0.00 0.00 0.00 43 1002.2
20260904054552 67 109 0.0 3.0 0.00 0.00 0.00 41 1002.2
20260904053048 69 252 0.0 0.0 0.00 0.00 0.00 40 1001.7